Location: Berlijn
(52.5200°N, 13.4050°E)
Time: 08:54:47
(UTC+02:00)

X-37B - Visible Passes

Search period start: 18 September 2021 00:00
Search period end: 28 September 2021 00:00
Orbit: 381 x 393 km, 45.0° (Epoch: 29 August)

Date Brightness Start Highest point End Pass type
(mag) Time Alt. Az. Time Alt. Az. Time Alt. Az.
23 Sep 3.2 06:01:02 10° SSW 06:02:42 14° SSE 06:04:22 10° SE visible
25 Sep 2.8 05:40:29 12° SSW 05:42:18 17° SSE 05:44:27 10° ESE visible
26 Sep 3.2 04:44:46 13° SSE 04:44:46 13° SSE 04:45:49 10° SE visible
26 Sep 2.5 06:17:38 10° SW 06:20:07 21° S 06:22:35 10° SE visible
27 Sep 2.4 05:21:20 19° S 05:21:56 20° S 05:24:19 10° ESE visible
